Location: Newark
(44.0692°N, 7.2567°E)
Time: 04:24:41
(UTC+00:00)

UWE-3 - Visible Passes

Search period start: 18 October 2019 00:00
Search period end: 28 October 2019 00:00
Orbit: 584 x 684 km, 97.6° (Epoch: 17 October)

Date Brightness Start Highest point End Pass type
(mag) Time Alt. Az. Time Alt. Az. Time Alt. Az.
18 Oct ? 04:46:29 10° NNE 04:50:31 32° E 04:54:36 10° SSE visible
18 Oct ? 17:21:31 10° SSW 17:24:56 25° W 17:28:25 10° NW visible
19 Oct ? 05:07:52 10° NNE 05:12:16 55° E 05:16:45 10° S visible
19 Oct ? 17:44:24 10° SW 17:46:47 15° W 17:49:12 10° NW visible
21 Oct ? 04:16:00 10° NE 04:18:52 16° E 04:21:47 10° SE visible
22 Oct ? 04:36:53 10° NE 04:40:43 27° E 04:44:37 10° SSE visible
22 Oct ? 17:11:22 10° SSW 17:15:04 31° W 17:18:51 10° NNW visible
23 Oct ? 04:58:09 10° NNE 05:02:29 44° E 05:06:55 10° S visible
23 Oct ? 17:33:57 10° SW 17:36:54 19° W 17:39:55 10° NW visible
24 Oct ? 05:19:39 10° NNE 05:24:13 75° ESE 05:28:50 10° S visible
24 Oct ? 17:57:40 10° WSW 17:58:48 11° W 17:59:56 10° WNW visible
25 Oct ? 04:06:45 10° ENE 04:09:02 14° E 04:11:20 10° ESE visible
26 Oct ? 04:27:20 10° NE 04:30:55 22° E 04:34:32 10° SE visible
26 Oct ? 17:01:18 10° SSW 17:05:13 39° W 17:09:15 10° NNW visible
27 Oct ? 04:48:29 10° NNE 04:52:43 36° E 04:57:00 10° SSE visible
27 Oct ? 17:23:38 10° SSW 17:27:01 23° W 17:30:28 10° NW visible
